Weather History for KCKN - March, 2014

Change the Weather History Date:

Friday, March 21, 2014

  Actual Average Record
Temperature  
Mean Temperature 20 °F -  
Max Temperature 35 °F 34 °F 66 °F (2012)
Min Temperature 6 °F 18 °F -14 °F (2013)
Degree Days  
Heating Degree Days 44    
Moisture  
Dew Point 16 °F    
Average Humidity 87    
Maximum Humidity 100    
Minimum Humidity 72    
Precipitation  
Precipitation 0.00 in - - ()
Sea Level Pressure  
Sea Level Pressure 30.03 in    
Wind  
Wind Speed 21 mph (North)    
Max Wind Speed 41 mph    
Max Gust Speed 51 mph    
Visibility 6 miles    
Events Snow    
Averages and records for this station are not official NWS values.
T = Trace of Precipitation, MM = Missing Value Source: NWS Daily Summary

Daily Weather History Graph

Daily Weather History Graph

Search for Another Location

Airport or City:

Trip Planner

Search our weather history database for the weather conditions in past years. The results will help you decide how hot, cold, wet, or windy it might be!

Date:

Astronomy

Mar. 21, 2014 Rise Set
Actual Time 7:27 AM CDT 7:40 PM CDT
Civil Twilight 6:56 AM CDT 8:11 PM CDT
Nautical Twilight 6:20 AM CDT 8:48 PM CDT
Astronomical Twilight 5:42 AM CDT 9:25 PM CDT
Moon 12:19 AM CDT (3/21) 10:00 AM CDT (3/21)
Length of Visible Light 13h 15m
Length of Day
12h 13m
Waning Gibbous, 75% of the Moon is Illuminated
Mar 21
Waning Gibbous
Mar 23
Last Quarter
Mar 30
New
Apr 7
First Quarter
Apr 15
Full

Hourly Weather History & Observations

Time (CDT) Temp. Windchill Dew Point Humidity Pressure Visibility Wind Dir Wind Speed Gust Speed Precip Events Conditions
12:15 AM 33.8 °F 24.3 °F 33.8 °F 100% 29.74 in 10.0 mi East 13.8 mph - 0.01 in   Overcast
12:34 AM 33.8 °F 26.4 °F 33.8 °F 100% 29.74 in 10.0 mi East 9.2 mph 16.1 mph 0.01 in   Overcast
12:54 AM 33.8 °F 25.3 °F 33.8 °F 100% 29.74 in 10.0 mi East 11.5 mph - N/A   Overcast
1:15 AM 33.8 °F 25.3 °F 33.8 °F 100% 29.74 in 10.0 mi East 11.5 mph - N/A   Overcast
1:34 AM 33.8 °F 25.8 °F 33.8 °F 100% 29.73 in 7.0 mi East 10.4 mph - N/A   Overcast
1:54 AM 33.8 °F 24.3 °F 33.8 °F 100% 29.72 in 10.0 mi East 13.8 mph - N/A   Overcast
2:15 AM 33.8 °F 26.4 °F 33.8 °F 100% 29.72 in 10.0 mi East 9.2 mph - N/A   Overcast
2:34 AM 33.8 °F 25.8 °F 33.8 °F 100% 29.72 in 10.0 mi East 10.4 mph - N/A   Overcast
2:55 AM 33.8 °F 27.7 °F 33.8 °F 100% 29.71 in 10.0 mi East 6.9 mph - N/A   Overcast
3:15 AM 35.6 °F 29.2 °F 33.8 °F 93% 29.70 in 10.0 mi East 8.1 mph - N/A   Overcast
3:34 AM 33.8 °F 26.4 °F 33.8 °F 100% 29.70 in 10.0 mi ESE 9.2 mph - N/A   Overcast
3:55 AM 33.8 °F 27.0 °F 33.8 °F 100% 29.71 in 10.0 mi ENE 8.1 mph - N/A   Overcast
4:14 AM 33.8 °F 25.8 °F 33.8 °F 100% 29.70 in 10.0 mi NE 10.4 mph - N/A   Overcast
4:34 AM 33.8 °F 25.8 °F 33.8 °F 100% 29.70 in 10.0 mi NE 10.4 mph 17.3 mph N/A   Overcast
4:55 AM 33.8 °F 24.8 °F 33.8 °F 100% 29.70 in 10.0 mi NE 12.7 mph 18.4 mph N/A   Overcast
5:14 AM 33.8 °F 24.3 °F 33.8 °F 100% 29.71 in 10.0 mi NE 13.8 mph - N/A   Overcast
5:34 AM 33.8 °F 23.9 °F 32.0 °F 93% 29.72 in 7.0 mi NNE 15.0 mph 19.6 mph N/A Snow Light Snow
5:55 AM 33.8 °F 23.2 °F 32.0 °F 93% 29.73 in 4.0 mi NNE 17.3 mph 23.0 mph N/A Snow Light Snow
6:14 AM 33.8 °F 21.9 °F 32.0 °F 93% 29.74 in 4.0 mi NNE 21.9 mph 32.2 mph N/A Snow Light Snow
6:34 AM 33.8 °F 22.2 °F 30.2 °F 87% 29.76 in 7.0 mi NNE 20.7 mph 27.6 mph N/A Snow Light Snow
6:55 AM 32.0 °F 18.4 °F 30.2 °F 93% 29.78 in 10.0 mi North 26.5 mph 31.1 mph N/A   Overcast
7:14 AM 32.0 °F 18.6 °F 30.2 °F 93% 29.79 in 2.5 mi North 25.3 mph 32.2 mph N/A Snow Light Snow
7:34 AM 32.0 °F 18.4 °F 30.2 °F 93% 29.80 in 4.0 mi North 26.5 mph 32.2 mph N/A Snow Light Snow
7:55 AM 28.4 °F 12.5 °F 26.6 °F 93% 29.83 in 2.0 mi North 31.1 mph 38.0 mph N/A Snow Light Snow
8:14 AM 26.6 °F 10.8 °F 24.8 °F 93% 29.85 in 2.5 mi North 27.6 mph 34.5 mph N/A   Mostly Cloudy
8:34 AM 24.8 °F 7.9 °F 21.2 °F 86% 29.87 in 4.0 mi North 29.9 mph 41.4 mph N/A   Mostly Cloudy
8:55 AM 21.2 °F 2.2 °F 21.2 °F 100% 29.88 in 2.5 mi North 33.4 mph 40.3 mph N/A   Overcast
9:14 AM 21.2 °F 1.4 °F 17.6 °F 86% 29.90 in 2.5 mi North 36.8 mph 43.7 mph N/A   Overcast
9:34 AM 19.4 °F -0.0 °F 17.6 °F 93% 29.92 in 2.0 mi North 32.2 mph 44.9 mph N/A   Overcast
9:55 AM 17.6 °F -4.1 °F 15.8 °F 93% 29.94 in 1.8 mi North 39.1 mph 44.9 mph N/A   Overcast
10:14 AM 17.6 °F -4.5 °F 15.8 °F 93% 29.95 in 2.0 mi North 41.4 mph 44.9 mph N/A Snow Light Snow
10:34 AM 17.6 °F -3.3 °F 15.8 °F 93% 29.97 in 1.0 mi North 35.7 mph 47.2 mph N/A Snow Light Snow
10:55 AM 15.8 °F -6.1 °F 12.2 °F 86% 29.98 in 1.0 mi North 36.8 mph 44.9 mph N/A Snow Light Snow
11:14 AM 15.8 °F -5.8 °F 12.2 °F 86% 30.00 in 1.0 mi North 35.7 mph 42.6 mph N/A Snow Light Snow
11:34 AM 15.8 °F -6.3 °F 12.2 °F 86% 30.02 in 0.8 mi North 38.0 mph 43.7 mph N/A Snow Light Snow
11:55 AM 14.0 °F -8.5 °F 10.4 °F 86% 30.04 in 1.8 mi North 36.8 mph 44.9 mph N/A Snow Light Snow
12:14 PM 14.0 °F -8.8 °F 10.4 °F 86% 30.05 in 2.0 mi North 38.0 mph 47.2 mph N/A   Overcast
12:35 PM 14.0 °F -9.3 °F 10.4 °F 86% 30.05 in 4.0 mi North 40.3 mph 50.6 mph N/A   Overcast
12:54 PM 12.2 °F -11.3 °F 10.4 °F 92% 30.07 in 1.5 mi North 38.0 mph 47.2 mph N/A Snow Light Snow
1:14 PM 12.2 °F -12.1 °F 10.4 °F 92% 30.08 in 1.0 mi North 41.4 mph 49.5 mph N/A   Overcast
1:35 PM 12.2 °F -10.2 °F 10.4 °F 92% 30.10 in 1.8 mi North 33.4 mph 44.9 mph N/A   Overcast
1:54 PM 12.2 °F -11.3 °F 8.6 °F 85% 30.11 in 1.0 mi North 38.0 mph 43.7 mph N/A   Overcast
2:14 PM 12.2 °F -10.5 °F 8.6 °F 85% 30.12 in 1.8 mi North 34.5 mph 46.0 mph N/A Snow Light Snow
2:35 PM 12.2 °F -11.3 °F 8.6 °F 85% 30.13 in 4.0 mi North 38.0 mph 47.2 mph N/A   Haze
2:54 PM 12.2 °F -10.2 °F 8.6 °F 85% 30.14 in 1.0 mi North 33.4 mph 42.6 mph N/A   Overcast
3:15 PM 12.2 °F -11.0 °F 8.6 °F 85% 30.15 in 2.0 mi North 36.8 mph 42.6 mph N/A   Overcast
3:34 PM 12.2 °F -9.6 °F 8.6 °F 85% 30.17 in 1.2 mi NNW 31.1 mph 39.1 mph N/A   Overcast
3:54 PM 10.4 °F -13.0 °F 6.8 °F 85% 30.19 in 2.0 mi North 34.5 mph 40.3 mph N/A   Overcast
4:15 PM 10.4 °F -12.7 °F 6.8 °F 85% 30.20 in 3.0 mi North 33.4 mph 40.3 mph N/A   Overcast
4:34 PM 10.4 °F -12.3 °F 6.8 °F 85% 30.21 in 2.0 mi North 32.2 mph 41.4 mph N/A   Haze
4:54 PM 10.4 °F -12.0 °F 6.8 °F 85% 30.22 in 4.0 mi North 31.1 mph 38.0 mph N/A   Mostly Cloudy
5:15 PM 10.4 °F -11.0 °F 5.0 °F 79% 30.24 in 7.0 mi North 27.6 mph 39.1 mph N/A   Mostly Cloudy
5:34 PM 10.4 °F -12.0 °F 5.0 °F 79% 30.24 in 10.0 mi North 31.1 mph 41.4 mph N/A   Mostly Cloudy
5:55 PM 10.4 °F -12.0 °F 3.2 °F 73% 30.25 in 10.0 mi North 31.1 mph 38.0 mph N/A   Scattered Clouds
6:14 PM 10.4 °F -11.7 °F 3.2 °F 73% 30.27 in 10.0 mi North 29.9 mph 38.0 mph N/A   Scattered Clouds
6:35 PM 8.6 °F -14.8 °F 3.2 °F 79% 30.28 in 10.0 mi NNW 32.2 mph 39.1 mph N/A   Clear
6:55 PM 8.6 °F -14.5 °F 3.2 °F 79% 30.28 in 10.0 mi North 31.1 mph 35.7 mph N/A   Clear
7:14 PM 8.6 °F -14.1 °F 1.4 °F 73% 30.29 in 10.0 mi North 29.9 mph 35.7 mph N/A   Clear
7:35 PM 8.6 °F -14.1 °F 3.2 °F 79% 30.30 in 10.0 mi North 29.9 mph 33.4 mph N/A   Clear
7:55 PM 6.8 °F -15.9 °F 1.4 °F 79% 30.32 in 10.0 mi North 27.6 mph 34.5 mph N/A   Clear
8:14 PM 6.8 °F -15.9 °F 1.4 °F 79% 30.33 in 10.0 mi North 27.6 mph 31.1 mph N/A   Clear
8:35 PM 6.8 °F -14.3 °F 1.4 °F 79% 30.34 in 10.0 mi North 23.0 mph 32.2 mph N/A   Clear
8:55 PM 6.8 °F -15.9 °F 1.4 °F 79% 30.34 in 10.0 mi North 27.6 mph 31.1 mph N/A   Clear
9:14 PM 6.8 °F -13.4 °F 1.4 °F 79% 30.35 in 10.0 mi North 20.7 mph 28.8 mph N/A   Clear
9:35 PM 6.8 °F -15.1 °F -0.4 °F 72% 30.36 in 10.0 mi North 25.3 mph - N/A   Clear
9:55 PM 6.8 °F -14.7 °F -0.4 °F 72% 30.37 in 10.0 mi North 24.2 mph 27.6 mph N/A   Clear
10:14 PM 6.8 °F -14.7 °F -0.4 °F 72% 30.37 in 10.0 mi North 24.2 mph 33.4 mph N/A   Clear
10:35 PM 6.8 °F -13.8 °F -0.4 °F 72% 30.39 in 10.0 mi North 21.9 mph 28.8 mph N/A   Clear
10:54 PM 6.8 °F -13.8 °F -0.4 °F 72% 30.39 in 10.0 mi North 21.9 mph 26.5 mph N/A   Clear
11:14 PM 6.8 °F -12.4 °F -0.4 °F 72% 30.39 in 10.0 mi North 18.4 mph 27.6 mph N/A   Clear
11:35 PM 6.8 °F -13.4 °F -0.4 °F 72% 30.40 in 10.0 mi North 20.7 mph - N/A   Clear
11:54 PM 6.8 °F -13.4 °F -0.4 °F 72% 30.40 in 10.0 mi North 20.7 mph - N/A   Clear